This is the latest recevied weather packets stored in our database for station/object I2HLY-4. If no packets are shown the sender has not sent any weather packets the latest 10 day(s).
| Time | Temp. | Humidity | Pressure | Rain* | Wind** | Luminosity | Snow |
|---|---|---|---|---|---|---|---|
| 1777942050 | 8.89° C | 66% | 1016 hPa | 0 mm | - | - | - |
| 1777941145 | 9.44° C | 62% | 1016.2 hPa | 0 mm | - | - | - |
| 1777940246 | 9.44° C | 64% | 1016.3 hPa | 0 mm | - | - | - |
| 1777938437 | 9.44° C | 63% | 1016.8 hPa | 0 mm | - | - | - |
| 1777937543 | 9.44° C | 64% | 1017 hPa | 0 mm | - | - | - |
| 1777936643 | 8.89° C | 65% | 1017.2 hPa | 0 mm | - | - | - |
| 1777935747 | 8.89° C | 65% | 1017.3 hPa | 0 mm | - | - | - |
| 1777934847 | 9.44° C | 64% | 1017.5 hPa | 0 mm | - | - | - |
| 1777933949 | 9.44° C | 63% | 1017.7 hPa | 0 mm | - | - | - |
| 1777933034 | 10° C | 62% | 1017.8 hPa | 0 mm | - | - | - |
| 1777932134 | 10° C | 62% | 1017.9 hPa | 0 mm | - | - | - |
| 1777931238 | 10° C | 62% | 1018 hPa | 0 mm | - | - | - |
| 1777930336 | 10° C | 64% | 1018.2 hPa | 0 mm | - | - | - |
| 1777929438 | 10° C | 64% | 1018.3 hPa | 0 mm | - | - | - |
| 1777928541 | 10° C | 63% | 1018.4 hPa | 0 mm | - | - | - |
| 1777927643 | 10° C | 62% | 1018.4 hPa | 0 mm | - | - | - |
| 1777926748 | 11.11° C | 59% | 1018.5 hPa | 0 mm | - | - | - |
| 1777925850 | 11.11° C | 57% | 1018.4 hPa | 0 mm | - | - | - |
| 1777924950 | 11.11° C | 58% | 1018.4 hPa | 0 mm | - | - | - |
| 1777924035 | 10.56° C | 58% | 1018.4 hPa | 0 mm | - | - | - |
| 1777923135 | 10.56° C | 60% | 1018.4 hPa | 0 mm | - | - | - |
| 1777922240 | 11.11° C | 58% | 1018.3 hPa | 0 mm | - | - | - |
| 1777921340 | 11.11° C | 58% | 1018.2 hPa | 0 mm | - | - | - |
| 1777920441 | 11.11° C | 58% | 1018.2 hPa | 0 mm | - | - | - |
| 1777919544 | 11.67° C | 60% | 1018.1 hPa | 0 mm | - | - | - |
* Rain latest hour (hover to see other rain measurements)
** Current wind speed in m/s (hover to see current wind gust speed)